Waarnemingen

Advertentie
Mijn weer
Angelholm, Zweden (2607): temperatuur & dauwpunt: 12.12.2017 21:00:00 - 18.12.2017 21:00:00 (CET)Angelholm, Zweden (2607): windsnelheid: 12.12.2017 21:00:00 - 18.12.2017 21:00:00 (CET)Angelholm, Zweden (2607): windrichting: 12.12.2017 21:00:00 - 18.12.2017 21:00:00 (CET)Angelholm, Zweden (2607): luchtdruk: 12.12.2017 21:00:00 - 18.12.2017 21:00:00 (CET)Angelholm, Zweden (2607): zicht: 12.12.2017 21:00:00 - 18.12.2017 21:00:00 (CET)
Datum & Tijd tt [°C] td [°C] ff [km/u] ff [kn] dd ppp [hPa] vv [km]
18.12.2017 21:00:00 1,2 0,7 11 6 Z 1023,5 1,8
18.12.2017 20:00:00 1,4 0,8 8 4 Z 1023,9 1,4
18.12.2017 19:00:00 1,4 0,8 8 4 Z 1023,6 1,2
18.12.2017 18:00:00 1,0 0,4 9 5 ZZO 1023,6 2,5
18.12.2017 17:00:00 0,8 -0,1 9 5 ZZO 1023,8 3,5
18.12.2017 16:00:00 0,8 -0,2 8 4 ZZO 1023,6 7
18.12.2017 15:00:00 1,1 -0,2 15 8 ZZW 1023,6 10
18.12.2017 14:00:00 0,7 0,1 11 6 Z 1023,7 5
18.12.2017 13:00:00 0,8 -0,1 13 7 ZZW 1023,5 6
18.12.2017 12:00:00 0,7 0,1 5 3 Z 1023,8 3,3
18.12.2017 11:00:00 0,5 -0,1 9 5 Z 1023,4 6
18.12.2017 10:00:00 0,3 0,0 5 3 Z 1023,2 10
18.12.2017 09:00:00 -0,8 -0,9 8 4 OZO 1022,7 10
18.12.2017 08:00:00 -2,4 -2,8 8 4 O 1022,2 10
18.12.2017 07:00:00 -2,9 -3,3 9 5 OZO 1021,3 10
18.12.2017 06:00:00 -3,3 -3,8 8 4 OZO 1020,5 10
18.12.2017 05:00:00 -3,9 -4,4 5 3 OZO 1020,2 9
18.12.2017 04:00:00 -4,7 -5,2 9 5 ZO 1019,9 9
18.12.2017 03:00:00 -4,7 -5,2 8 4 ZO 1019,8 3,3
18.12.2017 02:00:00 -5,3 -5,8 8 4 OZO 1019,6 5
18.12.2017 01:00:00 -4,5 -5,0 9 5 ZO 1019,4 9
18.12.2017 00:00:00 -4,2 -4,7 9 5 ZO 1019,7 10
17.12.2017 23:00:00 -4,5 -5,0 8 4 OZO 1019,9 10
17.12.2017 22:00:00 -4,5 -5,0 0 0 N 1019,6 10
17.12.2017 21:00:00 -6,2 -7,0 5 3 OZO 1019,2 10
17.12.2017 20:00:00 -6,5 -7,3 2 1 O 1019,1 10
17.12.2017 19:00:00 -6,3 -7,1 4 2 OZO 1018,8 10
17.12.2017 18:00:00 -6,1 -6,6 4 2 O 1018,9 5
17.12.2017 17:00:00 -5,8 -6,3 4 2 O 1018,5 0,3
17.12.2017 16:00:00 -4,3 -4,7 8 4 ZO 1018,0 10
17.12.2017 15:00:00 -2,3 -3,1 5 3 ZO 1017,7 10
17.12.2017 14:00:00 -0,4 -2,5 0 0 N 1017,7 10
17.12.2017 13:00:00 -0,3 -1,7 11 6 NW 1017,7 10
17.12.2017 12:00:00 -0,7 -1,3 0 0 N 1017,5 10
17.12.2017 11:00:00 -2,2 -2,6 2 1 - 1017,3 10
17.12.2017 10:00:00 -3,6 -4,1 4 2 - 1016,7 2,7
17.12.2017 09:00:00 -6,0 -6,8 5 3 - 1015,9 3,7
17.12.2017 08:00:00 -4,3 -4,8 4 2 N 1014,8 10
17.12.2017 07:00:00 -5,4 -5,9 2 1 NNW 1014,1 9
17.12.2017 06:00:00 -5,6 -6,1 0 0 N 1013,4 10
17.12.2017 05:00:00 -4,5 -5,6 8 4 WNW 1012,8 10
17.12.2017 04:00:00 -3,7 -4,8 9 5 NNW 1011,8 10
17.12.2017 03:00:00 -1,5 -3,1 11 6 N 1010,9 10
17.12.2017 02:00:00 -1,2 -2,3 11 6 N 1009,5 10
17.12.2017 01:00:00 -0,8 -1,6 13 7 NNO 1008,7 10
17.12.2017 00:00:00 -0,5 -0,9 5 3 N 1007,4 10
16.12.2017 23:00:00 -1,9 -2,0 5 3 OZO 1006,5 0,3
16.12.2017 22:00:00 -0,1 -0,5 8 4 WZW 1005,5 6
16.12.2017 21:00:00 0,0 -0,1 9 5 W 1005,1 2,2
16.12.2017 20:00:00 0,1 -0,3 2 1 - 1004,7 10
16.12.2017 19:00:00 -0,3 -0,7 4 2 - 1004,1 10
16.12.2017 18:00:00 0,1 -0,3 2 1 - 1003,6 2,5
16.12.2017 17:00:00 0,4 -0,5 9 5 W 1003,0 10
16.12.2017 16:00:00 0,8 -0,4 8 4 NW 1002,5 10
16.12.2017 15:00:00 0,7 -0,3 8 4 WNW 1001,8 10
16.12.2017 14:00:00 0,5 -0,4 18 10 WNW 1001,3 10
16.12.2017 13:00:00 1,0 0,0 9 5 WNW 1000,7 10
16.12.2017 12:00:00 0,4 -0,5 9 5 WNW 1000,3 10
16.12.2017 11:00:00 0,5 -0,2 4 2 W 1000,0 10
16.12.2017 10:00:00 -0,1 -0,7 5 3 W 999,6 10
16.12.2017 09:00:00 0,2 -0,5 9 5 W 999,0 2,0
16.12.2017 08:00:00 -0,4 -1,5 8 4 NNW 998,3 10
16.12.2017 07:00:00 0,4 -1,0 15 8 WNW 997,6 10
16.12.2017 06:00:00 1,7 0,2 15 8 NW 996,8 10
16.12.2017 05:00:00 2,6 0,8 13 7 ZW 996,2 10
16.12.2017 04:00:00 2,3 1,4 13 7 ZZW 996,1 8
16.12.2017 03:00:00 1,8 0,9 13 7 Z 996,0 9
16.12.2017 02:00:00 0,5 -0,1 8 4 ZZO 996,0 5
16.12.2017 01:00:00 1,1 0,5 9 5 ZZO 995,8 9
16.12.2017 00:00:00 0,9 0,0 9 5 ZZO 995,9 10
15.12.2017 23:00:00 0,9 -0,1 8 4 Z 995,9 10
15.12.2017 22:00:00 1,5 0,3 0 0 N 995,9 10
15.12.2017 21:00:00 1,6 0,1 22 12 W 995,5 8
15.12.2017 20:00:00 3,6 0,8 13 7 WZW 994,9 10
15.12.2017 19:00:00 3,4 1,0 13 7 W 994,4 10
15.12.2017 18:00:00 3,6 0,5 16 9 W 994,0 10
15.12.2017 17:00:00 3,5 0,4 18 10 W 993,6 10
15.12.2017 16:00:00 3,5 -0,2 18 10 W 993,3 10
15.12.2017 15:00:00 3,5 0,0 18 10 W 992,4 10
15.12.2017 14:00:00 3,1 0,7 18 10 W 991,8 10
15.12.2017 13:00:00 4,1 1,3 16 9 W 991,3 10
15.12.2017 12:00:00 3,6 2,0 18 10 W 990,9 10
15.12.2017 11:00:00 2,4 1,2 18 10 W 990,5 6
15.12.2017 10:00:00 3,8 1,7 18 10 W 989,7 10
15.12.2017 09:00:00 2,7 1,5 15 8 W 988,9 10
15.12.2017 08:00:00 2,8 1,6 18 10 W 988,2 6
15.12.2017 07:00:00 3,2 2,0 21 11 W 987,3 6
15.12.2017 06:00:00 3,3 1,8 24 13 W 986,6 10
15.12.2017 05:00:00 3,4 1,4 35 19 W 985,9 10
15.12.2017 04:00:00 3,4 1,9 26 14 WZW 985,2 10
15.12.2017 03:00:00 3,3 1,7 29 16 ZW 985,0 10
15.12.2017 02:00:00 3,0 1,5 26 14 ZW 984,8 10
15.12.2017 01:00:00 3,0 1,5 24 13 ZW 984,6 10
15.12.2017 00:00:00 3,5 1,9 24 13 ZW 984,3 10
14.12.2017 23:00:00 3,5 1,9 28 15 ZW 983,7 10
14.12.2017 22:00:00 3,4 1,6 31 17 ZW 983,2 10
14.12.2017 21:00:00 3,8 1,8 34 18 ZW 982,7 10
14.12.2017 20:00:00 3,9 1,9 29 16 WZW 982,2 10
14.12.2017 19:00:00 3,1 1,9 21 11 W 981,8 10
14.12.2017 18:00:00 2,6 1,1 35 19 W 981,5 7
14.12.2017 17:00:00 2,4 1,2 28 15 W 980,9 7
14.12.2017 16:00:00 1,7 0,5 31 17 W 980,3 9
14.12.2017 15:00:00 1,7 0,5 24 13 W 979,5 9
14.12.2017 14:00:00 1,0 0,4 15 8 WZW 978,9 3,3
14.12.2017 13:00:00 0,4 0,0 9 5 ZZW 978,3 3,4
14.12.2017 12:00:00 0,1 -0,3 5 3 ZO 978,3 1,6
14.12.2017 11:00:00 0,2 -0,2 8 4 OZO 978,3 2,2
14.12.2017 10:00:00 0,7 0,1 11 6 O 978,2 10
14.12.2017 09:00:00 0,5 -0,1 9 5 OZO 978,4 8
14.12.2017 08:00:00 1,4 0,5 21 11 OZO 978,6 6
14.12.2017 07:00:00 2,2 1,3 16 9 OZO 979,2 10
14.12.2017 06:00:00 2,3 1,4 16 9 OZO 979,8 5
14.12.2017 05:00:00 2,2 1,6 15 8 OZO 980,8 5
14.12.2017 04:00:00 2,2 1,3 15 8 ZO 981,7 10
14.12.2017 03:00:00 1,6 1,0 15 8 OZO 982,7 10
14.12.2017 02:00:00 1,6 1,0 13 7 OZO 983,4 10
14.12.2017 01:00:00 1,9 1,0 21 11 ZO 984,6 10
14.12.2017 00:00:00 2,0 1,1 21 11 ZZO 985,7 9
13.12.2017 23:00:00 1,8 0,9 18 10 ZZO 986,7 7
13.12.2017 22:00:00 0,5 -0,1 16 9 ZO 988,0 7
13.12.2017 21:00:00 0,5 -0,1 18 10 ZO 989,6 4,4
13.12.2017 20:00:00 0,6 -0,1 24 13 ZO 990,9 6
13.12.2017 19:00:00 1,3 0,1 28 15 ZZO 992,3 7
13.12.2017 18:00:00 1,9 0,7 26 14 ZZO 993,5 8
13.12.2017 17:00:00 2,2 0,7 31 17 ZZO 994,5 9
13.12.2017 16:00:00 2,2 0,8 24 13 ZZO 995,6 7
13.12.2017 15:00:00 2,4 0,3 34 18 ZZO 996,5 10
13.12.2017 14:00:00 2,7 0,2 26 14 ZZO 997,6 10
13.12.2017 13:00:00 2,5 0,0 29 16 ZZO 998,9 10
13.12.2017 12:00:00 2,4 -2,0 22 12 ZZO 1000,4 10
13.12.2017 11:00:00 2,0 -2,0 24 13 Z - 10
13.12.2017 10:00:00 1,6 -2,0 18 10 Z 1002,7 10
13.12.2017 09:00:00 1,7 -1,0 22 12 Z 1003,4 10
13.12.2017 08:00:00 1,9 -1,0 24 13 Z 1003,7 10
13.12.2017 07:00:00 2,3 0,0 28 15 ZZW 1003,9 10
13.12.2017 06:00:00 2,6 - 26 14 ZZW 1003,6 10
13.12.2017 05:00:00 2,5 - 22 12 ZZW 1003,6 10
13.12.2017 04:00:00 2,6 - 24 13 ZW 1003,5 10
13.12.2017 03:00:00 2,8 - 26 14 ZW 1003,5 10
13.12.2017 02:00:00 2,7 - 24 13 ZW 1003,4 10
13.12.2017 01:00:00 2,5 - 28 15 ZW 1003,2 10
13.12.2017 00:00:00 2,2 - 24 13 ZW 1003,0 10
12.12.2017 23:00:00 1,9 -1,0 18 10 ZW 1002,8 10
12.12.2017 22:00:00 2,5 -2,0 18 10 W 1002,6 10
12.12.2017 21:00:00 1,5 -2,0 18 10 W 1002,3 10

tt = temperatuur
td = dauwpunt
ff = windsnelheid
dd = windrichting
ppp = luchtdruk
vv = zicht

Weerstations in de omgeving